1998-067PB

Last updated on Sat Feb 22 2020 00:02:08 GMT+0000 (Coordinated Universal Time)

1 43553U 98067PB 20052.56285693 .00020189 00000-0 20021-3 0 9991 2 43553 51.6399 171.5779 0005578 0.6143 359.4859 15.65770481 91817
UTC large
Height (km)
Speed (km/s)
/
Latitude / Longitude
Inclination (degrees)
Orbital Period (minutes)
Azimuth
Elevation
Range (km)
Doppler Factor

Next 0 passes for location: London (51.5072 / 0.1276)

Sorry there are no passes over London.